#datetime,building,power
2023-07-25T00:00:00,sdl,5.42
2023-07-25T00:01:00,sdl,5.44
2023-07-25T00:02:00,sdl,7.59
2023-07-25T00:03:00,sdl,7.13
2023-07-25T00:04:00,sdl,7.09
2023-07-25T00:05:00,sdl,7.49
2023-07-25T00:06:00,sdl,7.43
2023-07-25T00:07:00,sdl,7.44
2023-07-25T00:08:00,sdl,7.17
2023-07-25T00:09:00,sdl,7.04
2023-07-25T00:10:00,sdl,7.06
2023-07-25T00:11:00,sdl,4.78
2023-07-25T00:12:00,sdl,2.92
2023-07-25T00:13:00,sdl,3.19
2023-07-25T00:14:00,sdl,2.92
2023-07-25T00:15:00,sdl,2.91
2023-07-25T00:16:00,sdl,2.92
2023-07-25T00:17:00,sdl,3.38
2023-07-25T00:18:00,sdl,3.94
2023-07-25T00:19:00,sdl,4.01
2023-07-25T00:20:00,sdl,4.03
2023-07-25T00:21:00,sdl,4.40
2023-07-25T00:22:00,sdl,4.22
2023-07-25T00:23:00,sdl,4.32
2023-07-25T00:24:00,sdl,4.30
2023-07-25T00:25:00,sdl,5.09
2023-07-25T00:26:00,sdl,3.69
2023-07-25T00:27:00,sdl,6.29
2023-07-25T00:28:00,sdl,6.70
2023-07-25T00:29:00,sdl,7.10
2023-07-25T00:30:00,sdl,6.45
2023-07-25T00:31:00,sdl,6.47
2023-07-25T00:32:00,sdl,6.71
2023-07-25T00:33:00,sdl,5.44
2023-07-25T00:34:00,sdl,5.51
2023-07-25T00:35:00,sdl,5.56
2023-07-25T00:36:00,sdl,5.55
2023-07-25T00:37:00,sdl,5.52
2023-07-25T00:38:00,sdl,5.92
2023-07-25T00:39:00,sdl,7.18
2023-07-25T00:40:00,sdl,6.86
2023-07-25T00:41:00,sdl,6.32
2023-07-25T00:42:00,sdl,4.18
2023-07-25T00:43:00,sdl,4.20
2023-07-25T00:44:00,sdl,4.29
2023-07-25T00:45:00,sdl,4.36
2023-07-25T00:46:00,sdl,4.53
2023-07-25T00:47:00,sdl,4.33
2023-07-25T00:48:00,sdl,4.29
2023-07-25T00:49:00,sdl,4.22
2023-07-25T00:50:00,sdl,4.25
2023-07-25T00:51:00,sdl,4.31
2023-07-25T00:52:00,sdl,4.31
2023-07-25T00:53:00,sdl,4.36
2023-07-25T00:54:00,sdl,2.83
2023-07-25T00:55:00,sdl,2.87
2023-07-25T00:56:00,sdl,2.46
2023-07-25T00:57:00,sdl,2.56
2023-07-25T00:58:00,sdl,2.54
2023-07-25T00:59:00,sdl,2.74
2023-07-25T01:00:00,sdl,3.59
2023-07-25T01:01:00,sdl,3.74
2023-07-25T01:02:00,sdl,3.97
2023-07-25T01:03:00,sdl,4.01
2023-07-25T01:04:00,sdl,4.05
2023-07-25T01:05:00,sdl,4.06
2023-07-25T01:06:00,sdl,4.17
2023-07-25T01:07:00,sdl,4.22
2023-07-25T01:08:00,sdl,4.74
2023-07-25T01:09:00,sdl,4.51
2023-07-25T01:10:00,sdl,4.45
2023-07-25T01:11:00,sdl,4.48
2023-07-25T01:12:00,sdl,4.27
2023-07-25T01:13:00,sdl,4.20
2023-07-25T01:14:00,sdl,4.14
2023-07-25T01:15:00,sdl,2.45
2023-07-25T01:16:00,sdl,2.40
2023-07-25T01:17:00,sdl,4.65
2023-07-25T01:18:00,sdl,4.68
2023-07-25T01:19:00,sdl,4.70
2023-07-25T01:20:00,sdl,4.69
2023-07-25T01:21:00,sdl,5.67
2023-07-25T01:22:00,sdl,5.79
2023-07-25T01:23:00,sdl,5.99
2023-07-25T01:24:00,sdl,6.92
2023-07-25T01:25:00,sdl,6.18
2023-07-25T01:26:00,sdl,6.24
2023-07-25T01:27:00,sdl,6.29
2023-07-25T01:28:00,sdl,6.29
2023-07-25T01:29:00,sdl,6.43
2023-07-25T01:30:00,sdl,6.40
2023-07-25T01:31:00,sdl,6.44
2023-07-25T01:32:00,sdl,4.23
2023-07-25T01:33:00,sdl,4.28
2023-07-25T01:34:00,sdl,4.27
2023-07-25T01:35:00,sdl,2.71
2023-07-25T01:36:00,sdl,2.35
2023-07-25T01:37:00,sdl,2.58
2023-07-25T01:38:00,sdl,2.49
2023-07-25T01:39:00,sdl,2.42
2023-07-25T01:40:00,sdl,2.52
2023-07-25T01:41:00,sdl,3.60
2023-07-25T01:42:00,sdl,3.95
2023-07-25T01:43:00,sdl,4.21
2023-07-25T01:44:00,sdl,4.00
2023-07-25T01:45:00,sdl,4.71
2023-07-25T01:46:00,sdl,4.28
2023-07-25T01:47:00,sdl,4.36
2023-07-25T01:48:00,sdl,4.36
2023-07-25T01:49:00,sdl,6.81
2023-07-25T01:50:00,sdl,6.62
2023-07-25T01:51:00,sdl,6.92
2023-07-25T01:52:00,sdl,6.76
2023-07-25T01:53:00,sdl,6.75
2023-07-25T01:54:00,sdl,6.82
2023-07-25T01:55:00,sdl,4.83
2023-07-25T01:56:00,sdl,4.77
2023-07-25T01:57:00,sdl,4.86
2023-07-25T01:58:00,sdl,2.58
2023-07-25T01:59:00,sdl,2.59
2023-07-25T02:00:00,sdl,2.56
2023-07-25T02:01:00,sdl,5.56
2023-07-25T02:02:00,sdl,5.62
2023-07-25T02:03:00,sdl,6.05
2023-07-25T02:04:00,sdl,6.27
2023-07-25T02:05:00,sdl,6.54
2023-07-25T02:06:00,sdl,11.49
2023-07-25T02:07:00,sdl,11.47
2023-07-25T02:08:00,sdl,11.54
2023-07-25T02:09:00,sdl,12.22
2023-07-25T02:10:00,sdl,12.09
2023-07-25T02:11:00,sdl,13.25
2023-07-25T02:12:00,sdl,13.13
2023-07-25T02:13:00,sdl,12.38
2023-07-25T02:14:00,sdl,12.03
2023-07-25T02:15:00,sdl,11.83
2023-07-25T02:16:00,sdl,12.47
2023-07-25T02:17:00,sdl,12.13
2023-07-25T02:18:00,sdl,12.39
2023-07-25T02:19:00,sdl,12.16
2023-07-25T02:20:00,sdl,13.42
2023-07-25T02:21:00,sdl,13.41
2023-07-25T02:22:00,sdl,15.67
2023-07-25T02:23:00,sdl,15.61
2023-07-25T02:24:00,sdl,15.68
2023-07-25T02:25:00,sdl,15.64
2023-07-25T02:26:00,sdl,15.85
2023-07-25T02:27:00,sdl,15.76
2023-07-25T02:28:00,sdl,15.75
2023-07-25T02:29:00,sdl,15.68
2023-07-25T02:30:00,sdl,15.73
2023-07-25T02:31:00,sdl,14.84
2023-07-25T02:32:00,sdl,14.71
2023-07-25T02:33:00,sdl,14.67
2023-07-25T02:34:00,sdl,14.62
2023-07-25T02:35:00,sdl,14.56
2023-07-25T02:36:00,sdl,14.53
2023-07-25T02:37:00,sdl,14.47
2023-07-25T02:38:00,sdl,15.38
2023-07-25T02:39:00,sdl,13.09
2023-07-25T02:40:00,sdl,13.08
2023-07-25T02:41:00,sdl,13.37
2023-07-25T02:42:00,sdl,13.25
2023-07-25T02:43:00,sdl,12.91
2023-07-25T02:44:00,sdl,12.85
2023-07-25T02:45:00,sdl,12.77
2023-07-25T02:46:00,sdl,12.74
2023-07-25T02:47:00,sdl,11.83
2023-07-25T02:48:00,sdl,11.76
2023-07-25T02:49:00,sdl,11.65
2023-07-25T02:50:00,sdl,11.70
2023-07-25T02:51:00,sdl,11.87
2023-07-25T02:52:00,sdl,11.64
2023-07-25T02:53:00,sdl,11.57
2023-07-25T02:54:00,sdl,11.62
2023-07-25T02:55:00,sdl,12.54
2023-07-25T02:56:00,sdl,12.55
2023-07-25T02:57:00,sdl,13.47
2023-07-25T02:58:00,sdl,12.66
2023-07-25T02:59:00,sdl,12.66
2023-07-25T03:00:00,sdl,12.57
2023-07-25T03:01:00,sdl,12.41
2023-07-25T03:02:00,sdl,12.57
2023-07-25T03:03:00,sdl,12.59
2023-07-25T03:04:00,sdl,11.75
2023-07-25T03:05:00,sdl,11.54
2023-07-25T03:06:00,sdl,11.52
2023-07-25T03:07:00,sdl,11.61
2023-07-25T03:08:00,sdl,11.74
2023-07-25T03:09:00,sdl,11.83
2023-07-25T03:10:00,sdl,11.81
2023-07-25T03:11:00,sdl,12.32
2023-07-25T03:12:00,sdl,12.32
2023-07-25T03:13:00,sdl,12.44
2023-07-25T03:14:00,sdl,12.42
2023-07-25T03:15:00,sdl,14.72
2023-07-25T03:16:00,sdl,14.57
2023-07-25T03:17:00,sdl,14.51
2023-07-25T03:18:00,sdl,14.55
2023-07-25T03:19:00,sdl,14.55
2023-07-25T03:20:00,sdl,13.75
2023-07-25T03:21:00,sdl,13.63
2023-07-25T03:22:00,sdl,13.71
2023-07-25T03:23:00,sdl,13.67
2023-07-25T03:24:00,sdl,13.64
2023-07-25T03:25:00,sdl,13.61
2023-07-25T03:26:00,sdl,13.62
2023-07-25T03:27:00,sdl,13.83
2023-07-25T03:28:00,sdl,14.45
2023-07-25T03:29:00,sdl,12.28
2023-07-25T03:30:00,sdl,12.60
2023-07-25T03:31:00,sdl,12.37
2023-07-25T03:32:00,sdl,12.36
2023-07-25T03:33:00,sdl,12.33
2023-07-25T03:34:00,sdl,12.31
2023-07-25T03:35:00,sdl,12.41
2023-07-25T03:36:00,sdl,12.37
2023-07-25T03:37:00,sdl,11.52
2023-07-25T03:38:00,sdl,11.49
2023-07-25T03:39:00,sdl,11.50
2023-07-25T03:40:00,sdl,12.14
2023-07-25T03:41:00,sdl,12.03
2023-07-25T03:42:00,sdl,11.62
2023-07-25T03:43:00,sdl,11.59
2023-07-25T03:44:00,sdl,11.67
2023-07-25T03:45:00,sdl,13.77
2023-07-25T03:46:00,sdl,14.62
2023-07-25T03:47:00,sdl,14.76
2023-07-25T03:48:00,sdl,14.71
2023-07-25T03:49:00,sdl,14.71
2023-07-25T03:50:00,sdl,14.64
2023-07-25T03:51:00,sdl,14.67
2023-07-25T03:52:00,sdl,15.18
2023-07-25T03:53:00,sdl,14.68
2023-07-25T03:54:00,sdl,14.82
2023-07-25T03:55:00,sdl,13.88
2023-07-25T03:56:00,sdl,13.85
2023-07-25T03:57:00,sdl,11.59
2023-07-25T03:58:00,sdl,11.60
2023-07-25T03:59:00,sdl,11.58
2023-07-25T04:00:00,sdl,11.63
2023-07-25T04:01:00,sdl,11.65
2023-07-25T04:02:00,sdl,12.15
2023-07-25T04:03:00,sdl,11.70
2023-07-25T04:04:00,sdl,12.59
2023-07-25T04:05:00,sdl,12.65
2023-07-25T04:06:00,sdl,13.36
2023-07-25T04:07:00,sdl,12.86
2023-07-25T04:08:00,sdl,13.02
2023-07-25T04:09:00,sdl,13.27
2023-07-25T04:10:00,sdl,12.86
2023-07-25T04:11:00,sdl,12.82
2023-07-25T04:12:00,sdl,13.04
2023-07-25T04:13:00,sdl,12.82
2023-07-25T04:14:00,sdl,11.92
2023-07-25T04:15:00,sdl,11.93
2023-07-25T04:16:00,sdl,11.90
2023-07-25T04:17:00,sdl,11.96
2023-07-25T04:18:00,sdl,11.90
2023-07-25T04:19:00,sdl,11.83
2023-07-25T04:20:00,sdl,11.93
2023-07-25T04:21:00,sdl,11.78
2023-07-25T04:22:00,sdl,11.67
2023-07-25T04:23:00,sdl,11.80
2023-07-25T04:24:00,sdl,12.66
2023-07-25T04:25:00,sdl,14.74
2023-07-25T04:26:00,sdl,14.89
2023-07-25T04:27:00,sdl,14.92
2023-07-25T04:28:00,sdl,14.83
2023-07-25T04:29:00,sdl,14.88
2023-07-25T04:30:00,sdl,14.95
2023-07-25T04:31:00,sdl,14.85
2023-07-25T04:32:00,sdl,14.97
2023-07-25T04:33:00,sdl,14.10
2023-07-25T04:34:00,sdl,13.97
2023-07-25T04:35:00,sdl,13.67
2023-07-25T04:36:00,sdl,13.62
2023-07-25T04:37:00,sdl,14.09
2023-07-25T04:38:00,sdl,14.07
2023-07-25T04:39:00,sdl,13.77
2023-07-25T04:40:00,sdl,13.54
2023-07-25T04:41:00,sdl,11.41
2023-07-25T04:42:00,sdl,11.48
2023-07-25T04:43:00,sdl,12.55
2023-07-25T04:44:00,sdl,12.60
2023-07-25T04:45:00,sdl,12.70
2023-07-25T04:46:00,sdl,12.84
2023-07-25T04:47:00,sdl,12.56
2023-07-25T04:48:00,sdl,12.49
2023-07-25T04:49:00,sdl,12.49
2023-07-25T04:50:00,sdl,12.47
2023-07-25T04:51:00,sdl,11.68
2023-07-25T04:52:00,sdl,11.66
2023-07-25T04:53:00,sdl,11.58
2023-07-25T04:54:00,sdl,11.52
2023-07-25T04:55:00,sdl,11.53
2023-07-25T04:56:00,sdl,11.82
2023-07-25T04:57:00,sdl,11.61
2023-07-25T04:58:00,sdl,11.80
2023-07-25T04:59:00,sdl,11.61
2023-07-25T05:00:00,sdl,11.74
2023-07-25T05:01:00,sdl,12.61
2023-07-25T05:02:00,sdl,12.53
2023-07-25T05:03:00,sdl,12.57
2023-07-25T05:04:00,sdl,12.54
2023-07-25T05:05:00,sdl,12.51
2023-07-25T05:06:00,sdl,12.85
2023-07-25T05:07:00,sdl,12.93
2023-07-25T05:08:00,sdl,12.46
2023-07-25T05:09:00,sdl,11.63
2023-07-25T05:10:00,sdl,13.66
2023-07-25T05:11:00,sdl,13.85
2023-07-25T05:12:00,sdl,13.65
2023-07-25T05:13:00,sdl,13.55
2023-07-25T05:14:00,sdl,13.56
2023-07-25T05:15:00,sdl,13.62
2023-07-25T05:16:00,sdl,13.90
2023-07-25T05:17:00,sdl,13.60
2023-07-25T05:18:00,sdl,14.56
2023-07-25T05:19:00,sdl,14.60
2023-07-25T05:20:00,sdl,13.16
2023-07-25T05:21:00,sdl,12.38
2023-07-25T05:22:00,sdl,12.42
2023-07-25T05:23:00,sdl,12.50
2023-07-25T05:24:00,sdl,12.71
2023-07-25T05:25:00,sdl,11.54
2023-07-25T05:26:00,sdl,11.46
2023-07-25T05:27:00,sdl,11.50
2023-07-25T05:28:00,sdl,11.53
2023-07-25T05:29:00,sdl,11.49
2023-07-25T05:30:00,sdl,11.57
2023-07-25T05:31:00,sdl,11.48
2023-07-25T05:32:00,sdl,11.78
2023-07-25T05:33:00,sdl,11.48
2023-07-25T05:34:00,sdl,11.47
2023-07-25T05:35:00,sdl,14.62
2023-07-25T05:36:00,sdl,14.58
2023-07-25T05:37:00,sdl,14.60
2023-07-25T05:38:00,sdl,14.76
2023-07-25T05:39:00,sdl,14.57
2023-07-25T05:40:00,sdl,14.99
2023-07-25T05:41:00,sdl,15.17
2023-07-25T05:42:00,sdl,13.71
2023-07-25T05:43:00,sdl,13.65
2023-07-25T05:44:00,sdl,13.73
2023-07-25T05:45:00,sdl,13.82
2023-07-25T05:46:00,sdl,14.09
2023-07-25T05:47:00,sdl,14.29
2023-07-25T05:48:00,sdl,14.60
2023-07-25T05:49:00,sdl,14.58
2023-07-25T05:50:00,sdl,12.58
2023-07-25T05:51:00,sdl,12.51
2023-07-25T05:52:00,sdl,13.65
2023-07-25T05:53:00,sdl,13.47
2023-07-25T05:54:00,sdl,13.42
2023-07-25T05:55:00,sdl,12.73
2023-07-25T05:56:00,sdl,12.77
2023-07-25T05:57:00,sdl,12.68
2023-07-25T05:58:00,sdl,12.69
2023-07-25T05:59:00,sdl,12.32
2023-07-25T06:00:00,sdl,11.78
2023-07-25T06:01:00,sdl,11.73
2023-07-25T06:02:00,sdl,12.23
2023-07-25T06:03:00,sdl,11.80
2023-07-25T06:04:00,sdl,11.80
2023-07-25T06:05:00,sdl,11.94
2023-07-25T06:06:00,sdl,11.74
2023-07-25T06:07:00,sdl,11.87
2023-07-25T06:08:00,sdl,12.72
2023-07-25T06:09:00,sdl,13.12
2023-07-25T06:10:00,sdl,13.01
2023-07-25T06:11:00,sdl,12.68
2023-07-25T06:12:00,sdl,12.70
2023-07-25T06:13:00,sdl,12.59
2023-07-25T06:14:00,sdl,12.59
2023-07-25T06:15:00,sdl,12.73
2023-07-25T06:16:00,sdl,11.72
2023-07-25T06:17:00,sdl,11.75
2023-07-25T06:18:00,sdl,11.75
2023-07-25T06:19:00,sdl,12.05
2023-07-25T06:20:00,sdl,11.83
2023-07-25T06:21:00,sdl,11.84
2023-07-25T06:22:00,sdl,11.57
2023-07-25T06:23:00,sdl,11.56
2023-07-25T06:24:00,sdl,11.58
2023-07-25T06:25:00,sdl,14.68
2023-07-25T06:26:00,sdl,14.58
2023-07-25T06:27:00,sdl,14.59
2023-07-25T06:28:00,sdl,14.54
2023-07-25T06:29:00,sdl,14.45
2023-07-25T06:30:00,sdl,14.54
2023-07-25T06:31:00,sdl,14.60
2023-07-25T06:32:00,sdl,13.78
2023-07-25T06:33:00,sdl,13.92
2023-07-25T06:34:00,sdl,14.36
2023-07-25T06:35:00,sdl,14.60
2023-07-25T06:36:00,sdl,13.80
2023-07-25T06:37:00,sdl,14.17
2023-07-25T06:38:00,sdl,14.12
2023-07-25T06:39:00,sdl,13.80
2023-07-25T06:40:00,sdl,13.77
2023-07-25T06:41:00,sdl,11.70
2023-07-25T06:42:00,sdl,11.51
2023-07-25T06:43:00,sdl,12.62
2023-07-25T06:44:00,sdl,12.61
2023-07-25T06:45:00,sdl,12.64
2023-07-25T06:46:00,sdl,12.64
2023-07-25T06:47:00,sdl,12.93
2023-07-25T06:48:00,sdl,12.87
2023-07-25T06:49:00,sdl,12.81
2023-07-25T06:50:00,sdl,12.79
2023-07-25T06:51:00,sdl,11.97
2023-07-25T06:52:00,sdl,11.98
2023-07-25T06:53:00,sdl,11.84
2023-07-25T06:54:00,sdl,11.90
2023-07-25T06:55:00,sdl,11.86
2023-07-25T06:56:00,sdl,11.83
2023-07-25T06:57:00,sdl,11.86
2023-07-25T06:58:00,sdl,13.90
2023-07-25T06:59:00,sdl,13.80
2023-07-25T07:00:00,sdl,13.92
2023-07-25T07:01:00,sdl,14.71
2023-07-25T07:02:00,sdl,14.60
2023-07-25T07:03:00,sdl,14.75
2023-07-25T07:04:00,sdl,14.63
2023-07-25T07:05:00,sdl,14.99
2023-07-25T07:06:00,sdl,15.05
2023-07-25T07:07:00,sdl,14.75
2023-07-25T07:08:00,sdl,12.59
2023-07-25T07:09:00,sdl,12.63
2023-07-25T07:10:00,sdl,12.62
2023-07-25T07:11:00,sdl,11.76
2023-07-25T07:12:00,sdl,11.68
2023-07-25T07:13:00,sdl,11.66
2023-07-25T07:14:00,sdl,11.76
2023-07-25T07:15:00,sdl,11.57
2023-07-25T07:16:00,sdl,11.75
2023-07-25T07:17:00,sdl,11.94
2023-07-25T07:18:00,sdl,11.81
2023-07-25T07:19:00,sdl,13.76
2023-07-25T07:20:00,sdl,13.73
2023-07-25T07:21:00,sdl,14.08
2023-07-25T07:22:00,sdl,16.85
2023-07-25T07:23:00,sdl,17.24
2023-07-25T07:24:00,sdl,17.04
2023-07-25T07:25:00,sdl,17.21
2023-07-25T07:26:00,sdl,17.33
2023-07-25T07:27:00,sdl,17.53
2023-07-25T07:28:00,sdl,17.41
2023-07-25T07:29:00,sdl,16.36
2023-07-25T07:30:00,sdl,16.27
2023-07-25T07:31:00,sdl,15.82
2023-07-25T07:32:00,sdl,15.61
2023-07-25T07:33:00,sdl,16.18
2023-07-25T07:34:00,sdl,17.77
2023-07-25T07:35:00,sdl,17.84
2023-07-25T07:36:00,sdl,17.77
2023-07-25T07:37:00,sdl,19.37
2023-07-25T07:38:00,sdl,19.39
2023-07-25T07:39:00,sdl,19.10
2023-07-25T07:40:00,sdl,19.33
2023-07-25T07:41:00,sdl,19.54
2023-07-25T07:42:00,sdl,19.30
2023-07-25T07:43:00,sdl,19.39
2023-07-25T07:44:00,sdl,19.36
2023-07-25T07:45:00,sdl,19.00
2023-07-25T07:46:00,sdl,21.65
2023-07-25T07:47:00,sdl,20.77
2023-07-25T07:48:00,sdl,21.40
2023-07-25T07:49:00,sdl,21.84
2023-07-25T07:50:00,sdl,21.50
2023-07-25T07:51:00,sdl,21.56
2023-07-25T07:52:00,sdl,20.21
2023-07-25T07:53:00,sdl,20.57
2023-07-25T07:54:00,sdl,24.23
2023-07-25T07:55:00,sdl,24.39
2023-07-25T07:56:00,sdl,24.64
2023-07-25T07:57:00,sdl,24.67
2023-07-25T07:58:00,sdl,24.71
2023-07-25T07:59:00,sdl,24.60
2023-07-25T08:00:00,sdl,24.42
2023-07-25T08:01:00,sdl,19.28
2023-07-25T08:02:00,sdl,19.58
2023-07-25T08:03:00,sdl,19.45
2023-07-25T08:04:00,sdl,19.68
2023-07-25T08:05:00,sdl,18.40
2023-07-25T08:06:00,sdl,17.83
2023-07-25T08:07:00,sdl,17.80
2023-07-25T08:08:00,sdl,18.08
2023-07-25T08:09:00,sdl,17.76
2023-07-25T08:10:00,sdl,18.11
2023-07-25T08:11:00,sdl,17.97
2023-07-25T08:12:00,sdl,17.69
2023-07-25T08:13:00,sdl,19.03
2023-07-25T08:14:00,sdl,19.10
2023-07-25T08:15:00,sdl,19.06
2023-07-25T08:16:00,sdl,19.48
2023-07-25T08:17:00,sdl,18.99
2023-07-25T08:18:00,sdl,19.31
2023-07-25T08:19:00,sdl,20.97
2023-07-25T08:20:00,sdl,21.34
2023-07-25T08:21:00,sdl,22.07
2023-07-25T08:22:00,sdl,21.13
2023-07-25T08:23:00,sdl,21.27
2023-07-25T08:24:00,sdl,25.02
2023-07-25T08:25:00,sdl,24.95
2023-07-25T08:26:00,sdl,24.78
2023-07-25T08:27:00,sdl,24.92
2023-07-25T08:28:00,sdl,24.94
2023-07-25T08:29:00,sdl,23.16
2023-07-25T08:30:00,sdl,21.73
2023-07-25T08:31:00,sdl,21.78
2023-07-25T08:32:00,sdl,15.66
2023-07-25T08:33:00,sdl,15.89
2023-07-25T08:34:00,sdl,16.14
2023-07-25T08:35:00,sdl,16.23
2023-07-25T08:36:00,sdl,15.62
2023-07-25T08:37:00,sdl,15.74
2023-07-25T08:38:00,sdl,15.70
2023-07-25T08:39:00,sdl,15.41
2023-07-25T08:40:00,sdl,15.39
2023-07-25T08:41:00,sdl,15.67
2023-07-25T08:42:00,sdl,15.20
2023-07-25T08:43:00,sdl,15.53
2023-07-25T08:44:00,sdl,17.63
2023-07-25T08:45:00,sdl,17.16
2023-07-25T08:46:00,sdl,16.29
2023-07-25T08:47:00,sdl,16.38
2023-07-25T08:48:00,sdl,16.61
2023-07-25T08:49:00,sdl,16.25
2023-07-25T08:50:00,sdl,16.30
2023-07-25T08:51:00,sdl,16.35
2023-07-25T08:52:00,sdl,17.71
2023-07-25T08:53:00,sdl,17.28
2023-07-25T08:54:00,sdl,17.64
2023-07-25T08:55:00,sdl,17.83
2023-07-25T08:56:00,sdl,17.90
2023-07-25T08:57:00,sdl,17.94
2023-07-25T08:58:00,sdl,18.25
2023-07-25T08:59:00,sdl,18.19
2023-07-25T09:00:00,sdl,18.44
2023-07-25T09:01:00,sdl,17.84
2023-07-25T09:02:00,sdl,18.59
2023-07-25T09:03:00,sdl,16.15
2023-07-25T09:04:00,sdl,15.35
2023-07-25T09:05:00,sdl,15.23
2023-07-25T09:06:00,sdl,14.46
2023-07-25T09:07:00,sdl,14.21
2023-07-25T09:08:00,sdl,14.51
2023-07-25T09:09:00,sdl,15.22
2023-07-25T09:10:00,sdl,16.27
2023-07-25T09:11:00,sdl,16.05
2023-07-25T09:12:00,sdl,15.29
2023-07-25T09:13:00,sdl,15.31
2023-07-25T09:14:00,sdl,15.28
2023-07-25T09:15:00,sdl,15.83
2023-07-25T09:16:00,sdl,15.73
2023-07-25T09:17:00,sdl,15.79
2023-07-25T09:18:00,sdl,15.96
2023-07-25T09:19:00,sdl,15.75
2023-07-25T09:20:00,sdl,15.85
2023-07-25T09:21:00,sdl,16.27
2023-07-25T09:22:00,sdl,15.99
2023-07-25T09:23:00,sdl,16.09
2023-07-25T09:24:00,sdl,16.01
2023-07-25T09:25:00,sdl,16.04
2023-07-25T09:26:00,sdl,15.92
2023-07-25T09:27:00,sdl,15.72
2023-07-25T09:28:00,sdl,15.69
2023-07-25T09:29:00,sdl,18.10
2023-07-25T09:30:00,sdl,17.38
2023-07-25T09:31:00,sdl,17.76
2023-07-25T09:32:00,sdl,17.98
2023-07-25T09:33:00,sdl,17.59
2023-07-25T09:34:00,sdl,17.67
2023-07-25T09:35:00,sdl,17.69
2023-07-25T09:36:00,sdl,17.73
2023-07-25T09:37:00,sdl,18.91
2023-07-25T09:38:00,sdl,18.07
2023-07-25T09:39:00,sdl,17.99
2023-07-25T09:40:00,sdl,18.34
2023-07-25T09:41:00,sdl,18.35
2023-07-25T09:42:00,sdl,18.49
2023-07-25T09:43:00,sdl,18.28
2023-07-25T09:44:00,sdl,18.31
2023-07-25T09:45:00,sdl,18.36
2023-07-25T09:46:00,sdl,18.29
2023-07-25T09:47:00,sdl,18.44
2023-07-25T09:48:00,sdl,16.32
2023-07-25T09:49:00,sdl,16.58
2023-07-25T09:50:00,sdl,16.91
2023-07-25T09:51:00,sdl,16.61
2023-07-25T09:52:00,sdl,16.60
2023-07-25T09:53:00,sdl,16.54
2023-07-25T09:54:00,sdl,16.48
2023-07-25T09:55:00,sdl,16.37
2023-07-25T09:56:00,sdl,17.18
2023-07-25T09:57:00,sdl,17.69
2023-07-25T09:58:00,sdl,16.71
2023-07-25T09:59:00,sdl,17.45
2023-07-25T10:00:00,sdl,17.53
2023-07-25T10:01:00,sdl,19.81
2023-07-25T10:02:00,sdl,19.26
2023-07-25T10:03:00,sdl,20.67
2023-07-25T10:04:00,sdl,19.63
2023-07-25T10:05:00,sdl,19.51
2023-07-25T10:06:00,sdl,19.53
2023-07-25T10:07:00,sdl,19.66
2023-07-25T10:08:00,sdl,20.02
2023-07-25T10:09:00,sdl,20.14
2023-07-25T10:10:00,sdl,19.62
2023-07-25T10:11:00,sdl,20.51
2023-07-25T10:12:00,sdl,19.63
2023-07-25T10:13:00,sdl,19.58
2023-07-25T10:14:00,sdl,20.05
2023-07-25T10:15:00,sdl,19.64
2023-07-25T10:16:00,sdl,17.08
2023-07-25T10:17:00,sdl,16.98
2023-07-25T10:18:00,sdl,17.10
2023-07-25T10:19:00,sdl,17.08
2023-07-25T10:20:00,sdl,17.22
2023-07-25T10:21:00,sdl,17.58
2023-07-25T10:22:00,sdl,17.28
2023-07-25T10:23:00,sdl,17.50
2023-07-25T10:24:00,sdl,17.87
2023-07-25T10:25:00,sdl,17.81
2023-07-25T10:26:00,sdl,18.30
2023-07-25T10:27:00,sdl,18.19
2023-07-25T10:28:00,sdl,18.01
2023-07-25T10:29:00,sdl,19.51
2023-07-25T10:30:00,sdl,19.50
2023-07-25T10:31:00,sdl,19.59
2023-07-25T10:32:00,sdl,19.50
2023-07-25T10:33:00,sdl,19.49
2023-07-25T10:34:00,sdl,19.62
2023-07-25T10:35:00,sdl,19.52
2023-07-25T10:36:00,sdl,19.77
2023-07-25T10:37:00,sdl,19.96
2023-07-25T10:38:00,sdl,19.49
2023-07-25T10:39:00,sdl,19.13
2023-07-25T10:40:00,sdl,19.16
2023-07-25T10:41:00,sdl,18.98
2023-07-25T10:42:00,sdl,19.02
2023-07-25T10:43:00,sdl,18.93
2023-07-25T10:44:00,sdl,19.27
2023-07-25T10:45:00,sdl,19.31
2023-07-25T10:46:00,sdl,19.52
2023-07-25T10:47:00,sdl,19.72
2023-07-25T10:48:00,sdl,19.43
2023-07-25T10:49:00,sdl,18.97
2023-07-25T10:50:00,sdl,19.96
2023-07-25T10:51:00,sdl,19.22
2023-07-25T10:52:00,sdl,17.49
2023-07-25T10:53:00,sdl,17.34
2023-07-25T10:54:00,sdl,17.22
2023-07-25T10:55:00,sdl,17.27
2023-07-25T10:56:00,sdl,17.24
2023-07-25T10:57:00,sdl,17.32
2023-07-25T10:58:00,sdl,17.40
2023-07-25T10:59:00,sdl,18.13
2023-07-25T11:00:00,sdl,17.53
2023-07-25T11:01:00,sdl,17.42
2023-07-25T11:02:00,sdl,17.09
2023-07-25T11:03:00,sdl,17.40
2023-07-25T11:04:00,sdl,17.03
2023-07-25T11:05:00,sdl,16.98
2023-07-25T11:06:00,sdl,16.99
2023-07-25T11:07:00,sdl,17.12
2023-07-25T11:08:00,sdl,17.54
2023-07-25T11:09:00,sdl,17.21
2023-07-25T11:10:00,sdl,17.27
2023-07-25T11:11:00,sdl,17.18
2023-07-25T11:12:00,sdl,16.59
2023-07-25T11:13:00,sdl,17.86
2023-07-25T11:14:00,sdl,17.38
2023-07-25T11:15:00,sdl,17.83
2023-07-25T11:16:00,sdl,17.81
2023-07-25T11:17:00,sdl,20.23
2023-07-25T11:18:00,sdl,19.56
2023-07-25T11:19:00,sdl,19.64
2023-07-25T11:20:00,sdl,19.57
2023-07-25T11:21:00,sdl,19.44
2023-07-25T11:22:00,sdl,19.19
2023-07-25T11:23:00,sdl,19.33
2023-07-25T11:24:00,sdl,19.35
2023-07-25T11:25:00,sdl,19.37
2023-07-25T11:26:00,sdl,19.33
2023-07-25T11:27:00,sdl,19.28
2023-07-25T11:28:00,sdl,19.48
2023-07-25T11:29:00,sdl,19.42
2023-07-25T11:30:00,sdl,19.58
2023-07-25T11:31:00,sdl,19.27
2023-07-25T11:32:00,sdl,19.38
2023-07-25T11:33:00,sdl,19.36
2023-07-25T11:34:00,sdl,19.33
2023-07-25T11:35:00,sdl,19.62
2023-07-25T11:36:00,sdl,19.76
2023-07-25T11:37:00,sdl,19.74
2023-07-25T11:38:00,sdl,17.59
2023-07-25T11:39:00,sdl,17.64
2023-07-25T11:40:00,sdl,17.52
2023-07-25T11:41:00,sdl,17.63
2023-07-25T11:42:00,sdl,17.51
2023-07-25T11:43:00,sdl,17.12
2023-07-25T11:44:00,sdl,17.35
2023-07-25T11:45:00,sdl,17.12
2023-07-25T11:46:00,sdl,17.11
2023-07-25T11:47:00,sdl,16.72
2023-07-25T11:48:00,sdl,16.76
2023-07-25T11:49:00,sdl,16.68
2023-07-25T11:50:00,sdl,16.86
2023-07-25T11:51:00,sdl,18.91
2023-07-25T11:52:00,sdl,19.14
2023-07-25T11:53:00,sdl,20.17
2023-07-25T11:54:00,sdl,19.07
2023-07-25T11:55:00,sdl,19.09
2023-07-25T11:56:00,sdl,19.17
2023-07-25T11:57:00,sdl,19.45
2023-07-25T11:58:00,sdl,19.31
2023-07-25T11:59:00,sdl,19.21
2023-07-25T12:00:00,sdl,19.95
2023-07-25T12:01:00,sdl,19.59
2023-07-25T12:02:00,sdl,18.97
2023-07-25T12:03:00,sdl,18.86
2023-07-25T12:04:00,sdl,18.85
2023-07-25T12:05:00,sdl,15.85
2023-07-25T12:06:00,sdl,17.06
2023-07-25T12:07:00,sdl,16.12
2023-07-25T12:08:00,sdl,17.40
2023-07-25T12:09:00,sdl,17.06
2023-07-25T12:10:00,sdl,16.21
2023-07-25T12:11:00,sdl,15.92
2023-07-25T12:12:00,sdl,17.01
2023-07-25T12:13:00,sdl,15.96
2023-07-25T12:14:00,sdl,16.26
2023-07-25T12:15:00,sdl,19.06
2023-07-25T12:16:00,sdl,19.23
2023-07-25T12:17:00,sdl,19.13
2023-07-25T12:18:00,sdl,19.46
2023-07-25T12:19:00,sdl,18.66
2023-07-25T12:20:00,sdl,18.79
2023-07-25T12:21:00,sdl,20.56
2023-07-25T12:22:00,sdl,18.86
2023-07-25T12:23:00,sdl,18.96
2023-07-25T12:24:00,sdl,19.15
2023-07-25T12:25:00,sdl,20.05
2023-07-25T12:26:00,sdl,20.06
2023-07-25T12:27:00,sdl,21.93
2023-07-25T12:28:00,sdl,22.75
2023-07-25T12:29:00,sdl,22.68
2023-07-25T12:30:00,sdl,22.68
2023-07-25T12:31:00,sdl,21.53
2023-07-25T12:32:00,sdl,21.56
2023-07-25T12:33:00,sdl,21.74
2023-07-25T12:34:00,sdl,23.40
2023-07-25T12:35:00,sdl,22.64
2023-07-25T12:36:00,sdl,22.36
2023-07-25T12:37:00,sdl,22.63
2023-07-25T12:38:00,sdl,22.48
2023-07-25T12:39:00,sdl,22.47
2023-07-25T12:40:00,sdl,22.32
2023-07-25T12:41:00,sdl,22.43
2023-07-25T12:42:00,sdl,22.44
2023-07-25T12:43:00,sdl,22.45
2023-07-25T12:44:00,sdl,21.62
2023-07-25T12:45:00,sdl,23.09
2023-07-25T12:46:00,sdl,22.29
2023-07-25T12:47:00,sdl,22.85
2023-07-25T12:48:00,sdl,21.98
2023-07-25T12:49:00,sdl,19.97
2023-07-25T12:50:00,sdl,19.94
2023-07-25T12:51:00,sdl,20.13
2023-07-25T12:52:00,sdl,20.76
2023-07-25T12:53:00,sdl,20.32
2023-07-25T12:54:00,sdl,20.24
2023-07-25T12:55:00,sdl,22.60
2023-07-25T12:56:00,sdl,21.86
2023-07-25T12:57:00,sdl,20.78
2023-07-25T12:58:00,sdl,21.06
2023-07-25T12:59:00,sdl,21.20
2023-07-25T13:00:00,sdl,21.06
2023-07-25T13:01:00,sdl,20.83
2023-07-25T13:02:00,sdl,23.56
2023-07-25T13:03:00,sdl,23.50
2023-07-25T13:04:00,sdl,23.07
2023-07-25T13:05:00,sdl,22.87
2023-07-25T13:06:00,sdl,23.27
2023-07-25T13:07:00,sdl,22.55
2023-07-25T13:08:00,sdl,22.75
2023-07-25T13:09:00,sdl,22.69
2023-07-25T13:10:00,sdl,22.72
2023-07-25T13:11:00,sdl,23.16
2023-07-25T13:12:00,sdl,23.22
2023-07-25T13:13:00,sdl,23.33
2023-07-25T13:14:00,sdl,24.16
2023-07-25T13:15:00,sdl,21.14
2023-07-25T13:16:00,sdl,21.52
2023-07-25T13:17:00,sdl,21.20
2023-07-25T13:18:00,sdl,21.06
2023-07-25T13:19:00,sdl,21.59
2023-07-25T13:20:00,sdl,20.52
2023-07-25T13:21:00,sdl,17.16
2023-07-25T13:22:00,sdl,17.32